AirNav   Air Wisconsin pilot careers
 
 963 users online  

48X Airport Manatee
Palmetto, Florida, USA

GOING TO PALMETTO?


FAA INFORMATION EFFECTIVE 26 APRIL 2018

Location

FAA Identifier: 48X
Lat/Long: 27-38-33.3500N / 082-31-11.7000W
27-38.555833N / 082-31.195000W
27.6425972 / -82.5199167
(estimated)
Elevation: 27 ft. / 8 m (estimated)
Variation: 02W (1985)
From city: 7 miles NE of PALMETTO, FL
Time zone: UTC -4 (UTC -5 during Standard Time)
Zip code: 34221

Airport Operations

Airport use: Open to the public
Activation date: 05/1977
Control tower: no
ARTCC: MIAMI CENTER
FSS: SAINT PETERSBURG FLIGHT SERVICE STATION
NOTAMs facility: PIE (NOTAM-D service available)
Attendance: MON-FRI 0900-1700, ALL SAT 0900-1200
CALL AMGR FOR AFTER HRS SVC AND CHECK RY CONDITIONS 941-722-9296.
Wind indicator: yes
Segmented circle: yes
Lights: LIRL RWY 7/25 AVBL BY PHONE REQUEST 941-722-9296.

Airport Communications

CTAF: 122.9
WX ASOS at SPG (9 nm NW): 118.875 (727-821-4334)
WX ASOS at SRQ (15 nm S): 124.375 (941-359-0117)
WX AWOS-3 at TPF (17 nm N): 118.925 (813-251-6824)
WX ASOS at PIE (18 nm NW): PHONE 727-531-3456
WX ASOS at TPA (20 nm N): PHONE 813-873-7228

Nearby radio navigation aids

VOR radial/distance  VOR name  Freq  Var
SRQr014/14.3SARASOTA VOR/DME117.0005W
PIEr156/18.1ST PETERSBURG VORTAC116.4005W
LALr231/33.9LAKELAND VORTAC116.0001E

Airport Services

Fuel available: 100LL
FUEL AVBL DAILY SR-SS.
Parking: hangars and tiedowns

Runway Information

Runway 7/25

Dimensions: 3120 x 100 ft. / 951 x 30 m
Surface: turf, in good condition
Runway edge lights: low intensity
Runway edge markings: RY 07 AND 25 THLDS MARKED BY THREE GREEN LGTS AND ONE BUCKET ON EACH SIDE OF RY.
RUNWAY 7  RUNWAY 25
Latitude: 27-38.496667N27-38.615000N
Longitude: 082-31.476667W082-30.913333W
Traffic pattern: rightleft
Obstructions: 34 ft. trees, 739 ft. from runway, 125 ft. left of centerline, 21:1 slope to clear
8 FT TREES 90-100 FT S OF RY CNTRLN FULL LENGTH. ACFT HANGARS 135 FT L OF CNTRLN FIRST HALF OF RY 07. ACFT PARKED 100 FT R OF CNTRLN FIRST 1/3 OF RY 25.
27 ft. tree, 634 ft. from runway, 115 ft. right of centerline, 23:1 slope to clear

Airport Ownership and Management from official FAA records

Ownership: Privately-owned
Owner: REEDER FARMS LLC
14108 U.S. HIGHWAY 41 NORTH
PALMETTO, FL 34221
Phone 941-722-9296
CONTACT PERSON: TOM REEDER: 941-722-9296
Manager: TOM REEDER
14108 U.S. HIGHWAY 41 NORTH
PALMETTO, FL 34221
Phone 941-722-9296
AIRPORT PHYSICAL ADDRESS: 14108 U.S. HIGHWAY 41 NORTH; FAX: 941-721-9067

Airport Operational Statistics

Aircraft based on the field: 55
Single engine airplanes: 39
Ultralights: 16
    
Aircraft operations: avg 136/week *
70% local general aviation
28% transient general aviation
1% military
* for 12-month period ending 14 December 2016

Additional Remarks

BIRDS, WILDLIFE AND DEER ON AND INVOF ARPT.
RY 07/25 FIRST 500 FT EAST END SOFT AFTER HEAVY SEASONAL RAINS.
RY 7/25 SPRINKLERS ACTIVE MON-THU 2000-0500.
AIRPORT CLSD TO TURBINE HELI OPS INCLUDING HOVER AND PRACTICE MANUEVERS AT NE FIELD ADJ TO RWY 7/25 EXC BELL JET RANGERS, EMERG. CALL IN ADVANCE 941-722-9296.

Instrument Procedures

There are no published instrument procedures at 48X.

Some nearby airports with instrument procedures:

KSPG - Albert Whitted Airport (9 nm NW)
KMCF - MacDill Air Force Base (12 nm N)
KSRQ - Sarasota/Bradenton International Airport (15 nm S)
KTPF - Peter O Knight Airport (17 nm N)
KPIE - St Pete-Clearwater International Airport (18 nm NW)
KTPA - Tampa International Airport (20 nm N)
 
Loc | Ops | Rwys | IFR | FBO | Links
Com | Nav | Svcs | Stats | Notes


 
Area around 48X (Airport Manatee)
 
Road maps at: MapQuest Bing Google
 
Aerial photo
WARNING: Photo may not be current or correct
Aerial photo of 48X (Airport Manatee)
Photo courtesy of PhotosFromTheAir.com
Photo taken 26-Apr-2012
looking northeast.

Do you have a better or more recent aerial photo of Airport Manatee that you would like to share? If so, please send us your photo.

 
Sectional chart

 
Airport distance calculator
Flying to Airport Manatee? Find the distance to fly.

From to 48X

Sunrise and sunset
Times for 22-May-2018
 Local
(UTC-4)
 Zulu
(UTC)
Morning civil twilight06:1310:13
Sunrise06:3910:39
Sunset20:1500:15
Evening civil twilight20:4100:41

Current date and time
Zulu (UTC)  23-May-2018 01:31:25
Local (UTC-4)  22-May-2018 21:31:25
 
METAR
KSPG 
10nm NW 
230053Z AUTO 13008KT 10SM FEW037 OVC055 23/23 A3005 RMK AO2 SLP174 T02330228
KMCF 
12nm N 
230115Z AUTO 13005KT 10SM FEW042 OVC055 23/22 A3006 RMK AO2 DZE0058RAB0058E13DZB13E15 SLP182 FZRANO $
KSRQ 
15nm S 
230053Z 11008KT 10SM BKN060 23/22 A3004 RMK AO2 SLP173 T02330217
KTPF 
17nm N 
230115Z AUTO 15005KT 10SM SCT060 OVC075 23/23 A3007 RMK AO2
KPIE 
19nm NW 
230053Z 12007KT 10SM FEW024 OVC065 26/23 A3007 RMK AO2 SLP181 T02560233 $
KTPA 
19nm N 
230053Z 14007KT 10SM SCT019 BKN038 OVC045 24/21 A3008 RMK AO2 SLP184 T02390206
TAF
KMCF 
12nm N 
221942Z 2219/2322 14006KT 9999 SCT035 BKN045 QNH3002INS BECMG 2219/2220 14009KT 8000 -SHRA VCTS SCT025CB BKN035 QNH3000INS TEMPO 2219/2222 10015G20KT 6000 -TSRA BKN020CB BECMG 2301/2302 16006KT 9999 NSW FEW015 SCT050 QNH3001INS BECMG 2306/2307 15006KT 9999 BKN018 OVC035 QNH3003INS BECMG 2312/2313 13009KT 9999 SCT012 SCT095 QNH3005INS BECMG 2320/2321 13009KT 8000 -SHRA FEW025 BKN080 QNH3007INS TX29/2220Z TN21/2311Z
KSRQ 
15nm S 
221951Z 2220/2318 13009KT P6SM VCTS FEW015CB SCT030 OVC060 FM222200 12007KT P6SM VCSH SCT025 BKN070 FM230300 10006KT P6SM SCT070 SCT250 FM231400 12009KT P6SM SCT015 BKN250 FM231700 15008KT P6SM VCTS SCT025CB BKN040
KPIE 
19nm NW 
221736Z 2218/2318 13010KT P6SM VCTS SCT020CB BKN040 TEMPO 2218/2222 VRB15G25KT 3SM TSRA BKN020CB FM222300 13008KT P6SM VCSH SCT025 BKN070 FM230300 11006KT P6SM SCT070 SCT250 FM231400 12008KT P6SM SCT015 BKN250 FM231700 10007KT P6SM VCTS SCT025CB BKN040
KTPA 
19nm N 
222053Z 2221/2324 15008KT 2SM +TSRA BR BKN020CB OVC040 FM222130 VRB08G18KT 3SM -TSRA FEW020CB BKN030 FM222200 13006KT P6SM VCSH SCT025 BKN070 FM230300 10004KT P6SM SCT070 SCT250 FM231400 14006KT P6SM SCT015 BKN250 FM231700 21007KT P6SM VCTS SCT025CB BKN040
NOTAMs
Click for the latest NOTAMs
NOTAMs are issued by the DoD/FAA and will open in a separate window not controlled by AirNav.

 

 
 

FBO, Fuel Providers, and Aircraft Ground Support

  
 Business Name 
 
 Contact 
 
 Services / Description 
 
Fuel Prices
 
Comments
  
Airport Manatee 941-722-9296
[web site]
[email]
Airport management, Aviation fuel, Aircraft parking (ramp or tiedown), Hangars, Hangar leasing / sales, Passenger terminal and lounge, Flight training, ...

More info about Airport Manatee
independent
100LL
SS $4.23 
 Updated 12-May-2018
 
   4 read write
SS=Self service
Update Fuel Prices
 

Would you like to see your business listed on this page?

 If your business provides an interesting product or service to pilots, flight crews, aircraft, or users of the Airport Manatee, you should consider listing it here.  To start the listing process, click on the button below
 
Add a business
 

Other Pages about Airport Manatee

airportmanatee48x.com
 
Update a link
 
Copyright © AirNav, LLC. All rights reserved. Privacy Policy  Contact